[Date Prev][Date Next][Thread Prev][Thread Next] - [Date Index][Thread Index][Author Index]
2 Line ISS Keps 9-30
- Subject: [sarex] 2 Line ISS Keps 9-30
- From: "Scott Avery WA6LIE" <wa6lie@xxxxxxx>
- Date: Thu, 30 Sep 2004 04:17:51 -0700
- Seal-Send-Time: Thu, 30 Sep 2004 04:17:51 -0700
ISS
1 25544U 98067A 04274.36560185 .00013391 00000-0 12036-3 0 8004
2 25544 51.6363 148.9612 0009759 167.2846 176.3369 15.68557974334834
----
Via the sarex mailing list at AMSAT.ORG courtesy of AMSAT-NA.
To unsubscribe, send "unsubscribe sarex" to Majordomo@amsat.org
AMSAT Home